TimeEST,TemperatureF,Dew PointF,Humidity,Sea Level PressureIn,VisibilityMPH,Wind Direction,Wind SpeedMPH,Gust SpeedMPH,PrecipitationIn,Events,Conditions,WindDirDegrees,DateUTC
12:15 AM,42.8,41.0,93,30.04,5.0,NE,6.9,-,N/A,,Overcast,40,2013-02-26 05:15:00
12:35 AM,42.8,41.0,93,30.04,5.0,NNE,8.1,-,N/A,,Overcast,30,2013-02-26 05:35:00
12:55 AM,42.8,42.8,100,30.02,6.0,NE,9.2,-,N/A,,Overcast,40,2013-02-26 05:55:00
1:15 AM,42.8,42.8,100,30.01,6.0,NE,10.4,-,N/A,,Overcast,40,2013-02-26 06:15:00
1:35 AM,42.8,41.0,93,30.01,8.0,NNE,10.4,-,N/A,,Overcast,30,2013-02-26 06:35:00
1:55 AM,42.8,42.8,100,30.01,9.0,NE,11.5,-,N/A,,Overcast,40,2013-02-26 06:55:00
2:15 AM,42.8,41.0,93,30.00,10.0,NNE,9.2,-,N/A,,Overcast,30,2013-02-26 07:15:00
2:35 AM,44.6,42.8,93,29.99,10.0,NE,11.5,-,N/A,,Overcast,40,2013-02-26 07:35:00
2:55 AM,44.6,42.8,93,29.96,10.0,NE,12.7,-,N/A,,Overcast,50,2013-02-26 07:55:00
3:15 AM,44.6,44.6,100,29.93,9.0,NE,15.0,19.6,N/A,,Overcast,40,2013-02-26 08:15:00
3:35 AM,44.6,44.6,100,29.94,10.0,ENE,12.7,17.3,N/A,,Overcast,60,2013-02-26 08:35:00
3:55 AM,44.6,44.6,100,29.94,10.0,ENE,12.7,-,N/A,,Overcast,60,2013-02-26 08:55:00
4:15 AM,46.4,44.6,93,29.93,5.0,NE,15.0,19.6,N/A,,Overcast,50,2013-02-26 09:15:00
4:35 AM,46.4,46.4,100,29.91,6.0,ENE,13.8,21.9,0.01,,Overcast,60,2013-02-26 09:35:00
4:55 AM,46.4,44.6,93,29.90,3.0,ENE,15.0,21.9,0.01,,Overcast,60,2013-02-26 09:55:00
5:15 AM,48.2,46.4,93,29.89,3.0,ENE,17.3,-,N/A,,Overcast,60,2013-02-26 10:15:00
5:35 AM,48.2,48.2,100,29.89,2.5,ENE,16.1,25.3,0.01,,Overcast,60,2013-02-26 10:35:00
5:50 AM,50.0,50.0,100,29.88,2.5,ENE,18.4,24.2,N/A,Rain,Light Rain,60,2013-02-26 10:50:00
6:45 AM,53.6,53.6,100,29.86,2.0,East,18.4,24.2,N/A,Rain,Light Rain,80,2013-02-26 11:45:00
7:45 AM,55.4,53.6,94,29.84,2.0,East,17.3,23.0,N/A,Rain,Light Rain,80,2013-02-26 12:45:00
8:45 AM,57.2,57.2,100,29.82,1.5,East,18.4,27.6,N/A,Rain,Light Rain,100,2013-02-26 13:45:00
9:50 AM,59.0,59.0,100,29.80,1.5,ESE,17.3,-,N/A,Rain,Rain,120,2013-02-26 14:50:00
10:45 AM,62.6,60.8,94,29.76,2.0,SE,17.3,-,N/A,Rain,Rain,130,2013-02-26 15:45:00
11:45 AM,60.8,59.0,94,29.74,2.0,SSE,9.2,-,N/A,Rain,Rain,150,2013-02-26 16:45:00
12:50 PM,62.6,60.8,94,29.72,3.0,SW,19.6,29.9,N/A,Rain,Rain,220,2013-02-26 17:50:00
1:05 PM,62.6,62.6,100,29.69,1.0,SSW,23.0,34.5,N/A,Rain,Heavy Rain,200,2013-02-26 18:05:00
1:45 PM,64.4,62.6,94,29.66,3.0,South,18.4,-,N/A,,Overcast,180,2013-02-26 18:45:00
2:45 PM,62.6,60.8,94,29.61,3.0,South,19.6,25.3,N/A,,Mostly Cloudy,170,2013-02-26 19:45:00
3:50 PM,64.4,62.6,94,29.60,5.0,South,19.6,-,N/A,,Scattered Clouds,180,2013-02-26 20:50:00
4:50 PM,64.4,62.6,94,29.59,7.0,SSW,19.6,-,N/A,,Mostly Cloudy,200,2013-02-26 21:50:00
6:45 PM,62.6,60.8,94,29.61,7.0,SSW,13.8,-,N/A,,Clear,200,2013-02-26 23:45:00
7:50 PM,60.8,59.0,94,29.63,7.0,SSW,13.8,-,N/A,,Partly Cloudy,200,2013-02-27 00:50:00
8:45 PM,62.6,57.2,82,29.64,10.0,SW,11.5,-,N/A,,Clear,220,2013-02-27 01:45:00
10:55 PM,60.8,53.6,77,29.68,10.0,West,8.1,-,N/A,,Clear,260,2013-02-27 03:55:00
11:15 PM,60.8,55.4,82,29.67,10.0,WSW,6.9,-,N/A,,Clear,240,2013-02-27 04:15:00
11:35 PM,59.0,53.6,82,29.68,10.0,WNW,8.1,-,N/A,,Clear,300,2013-02-27 04:35:00
11:55 PM,57.2,53.6,88,29.68,10.0,WNW,8.1,-,N/A,,Clear,300,2013-02-27 04:55:00